Overview Statistics Trail Chart Weather Telemetry Raw packets
 

This is the latest recevied weather packets stored in our database for station/object W8KHW. If no packets are shown the sender has not sent any weather packets the latest 10 day(s).

<< 1 2 3 4 5 >>
Time Temp. Humidity Pressure Rain* Wind** Luminosity Snow
1777896457 12.22° C 70% 1010.4 hPa 0 mm - - -
1777895966 12.22° C 71% 1010.5 hPa 0 mm - - -
1777895457 11.67° C 72% 1010.5 hPa 0 mm - - -
1777894957 10° C 76% 1010.4 hPa 0 mm - - -
1777894472 8.89° C 79% 1010.4 hPa 0 mm - - -
1777893956 8.33° C 82% 1010.4 hPa 0 mm - - -
1777893456 7.78° C 82% 1010.2 hPa 0 mm - - -
1777892955 7.78° C 83% 1010.2 hPa 0 mm - - -
1777892455 7.78° C 83% 1010.1 hPa 0 mm - - -
1777891955 7.22° C 83% 1010.1 hPa 0 mm - - -
1777891455 7.22° C 83% 1010.1 hPa 0 mm - - -
1777890955 7.22° C 82% 1010.3 hPa 0 mm - - -
1777890455 7.78° C 82% 1010.3 hPa 0 mm - - -
1777889955 7.78° C 81% 1010.4 hPa 0 mm - - -
1777889454 7.78° C 81% 1010.4 hPa 0 mm - - -
1777888954 7.78° C 80% 1010.4 hPa 0 mm - - -
1777888454 7.78° C 80% 1010.6 hPa 0 mm - - -
1777887954 8.33° C 79% 1010.6 hPa 0 mm - - -
1777887454 8.33° C 79% 1010.8 hPa 0 mm - - -
1777886953 8.33° C 78% 1010.7 hPa 0 mm - - -
1777886453 8.33° C 78% 1010.9 hPa 0 mm - - -
1777885953 8.33° C 78% 1010.6 hPa 0 mm - - -
1777885453 8.33° C 79% 1010.8 hPa 0 mm - - -
1777884952 8.33° C 78% 1010.8 hPa 0 mm - - -
1777884452 8.33° C 78% 1010.9 hPa 0 mm - - -

* Rain latest hour (hover to see other rain measurements)
** Current wind speed in m/s (hover to see current wind gust speed)